Regional Weather Roundup
Issued by NWS

Home | Current Version | Previous Version | Text Only | Print | Product List | Glossary On
Versions: 1 2 3 4 5 6 7 8 9 10 11 12 13 14 15 16 17 18 19 20 21 22 23 24 25 26 27
000
ASUS43 KDMX 242107
RWRIA

WEATHER ROUNDUP FOR IOWA
NATIONAL WEATHER SERVICE DES MOINES IA
400 PM CDT FRI OCT 24 2014

NOTE: "FAIR" INDICATES FEW OR NO CLOUDS BELOW 12,000 FEET WITH NO
SIGNIFICANT WEATHER AND/OR OBSTRUCTIONS TO VISIBILITY.

* - THESE STATIONS ARE NOT NWS STATIONS...THUS NOT UNDER NWS
QUALITY CONTROL.  THEY ALSO DO NOT REPORT WEATHER SUCH
AS PRECIPITATION OR FOG.

IAZ001>003-012>014-020>022-031>034-043>046-242200-
   NORTHWEST IOWA

CITY           SKY/WX    TMP DP  RH WIND       PRES   REMARKS
CARROLL *      SUNNY     75  55  50 W9        29.88R
CHEROKEE *     MOSUNNY   72  52  49 NW6       29.88S
DENISON *      SUNNY     75  54  46 W8        29.87S
LE MARS *      SUNNY     75  46  35 VRB5      29.89R
ORANGE CITY *  SUNNY     75  43  31 NW7       29.89R
SHELDON *      SUNNY     75  45  33 VRB7G14   29.88R
SIOUX CITY     MOSUNNY   77  46  33 NW8       29.89R
SPENCER          N/A     74  50  42 W9        29.88R
STORM LAKE *   SUNNY     72  52  49 W8        29.90R
$$

IAZ055>058-069>071-079>083-090>094-242200-
   SOUTHWEST IOWA

CITY           SKY/WX    TMP DP  RH WIND       PRES   REMARKS
AUDUBON *      SUNNY     73  57  56 SW8       29.90S
CLARINDA *     SUNNY     75  64  69 SW8G16    29.91S
COUNCIL BLFS * SUNNY     73  61  64 SW7       29.89S
CRESTON *      MOSUNNY   70  63  78 SW8       29.92R
HARLAN  *      SUNNY     73  61  64 W8        29.92F
LAMONI         PTSUNNY   68  62  81 S10       29.91S
RED OAK *      SUNNY     73  63  68 SW7       29.90S
SHENANDOAH *   SUNNY     75  61  60 W13       29.90S
$$

IAZ047>049-059>061-072>074-084-242200-
   CENTRAL IOWA

CITY           SKY/WX    TMP DP  RH WIND       PRES   REMARKS
AMES           PTSUNNY   69  61  75 SW7       29.88S
ANKENY *       CLOUDY    66  63  88 S8        29.88S
CHARITON *     CLOUDY    64  61  88 SW9       29.92S FOG
DES MOINES     CLOUDY    67  61  81 SW12      29.89S
GRINNELL*      CLOUDY    61  61 100 SW9       29.90F FOG
KNOXVILLE *    CLOUDY    64  59  82 SW8       29.90S
MARSHALLTOWN   CLOUDY    62  60  93 S8        29.89S FOG
PELLA *        CLOUDY    63  61  94 SW10      29.92S FOG
PERRY *          N/A     73  59  60 SW9       29.88S
$$

IAZ004>006-015-016-023>025-035-036-242200-
   NORTH CENTRAL IOWA

CITY           SKY/WX    TMP DP  RH WIND       PRES   REMARKS
ALGONA *       SUNNY     70  55  60 W9        29.87R
CLARION *      SUNNY     70  59  68 W8        29.87R
ESTHERVILLE    PTSUNNY   73  48  41 W7        29.86R
FORT DODGE *   PTSUNNY   72  57  60 SW9       29.88S
MASON CITY     MOSUNNY   67  58  72 SW8       29.88S
FOREST CITY *  SUNNY     70  57  64 W8        29.86S
IOWA FALLS *   PTSUNNY   64  63  94 S5        29.89S FOG
$$

IAZ007>011-017>019-026>030-037>042-050>054-066-242200-
   NORTHEAST IOWA

CITY           SKY/WX    TMP DP  RH WIND       PRES   REMARKS
CEDAR RAPIDS   CLOUDY    64  58  80 S13       29.89S
CHARLES CITY * CLOUDY    59  59 100 S7        29.89S FOG
CLINTON *      MOSUNNY   66  50  55 S13       29.96F
DECORAH *      CLOUDY    57  55  94 S7G14     29.88F
DUBUQUE        PTSUNNY   64  54  69 S16       29.90F
MONTICELLO *   CLOUDY    64  57  77 S13G23    29.89F
OELWEIN *      CLOUDY    57  57 100 S10       29.90F FOG
WATERLOO       CLOUDY    59  59 100 S9        29.89S FOG
$$

IAZ064-065-067-068-078-242200-
   EAST CENTRAL IOWA

CITY           SKY/WX    TMP DP  RH WIND       PRES   REMARKS
DAVENPORT      PTSUNNY   68  52  56 S15       29.94F
IOWA CITY      MOSUNNY   65  58  78 S13       29.92F
MT. PLEASANT * PTSUNNY   63  55  77 S14       29.94F
MUSCATINE *    CLOUDY    68  55  64 S15G24    29.92F
QUAD CITIES    PTSUNNY   70  53  54 S10       29.93F
$$

IAZ062-063-075>077-085>089-095>099-242200-
   SOUTHEAST IOWA

CITY           SKY/WX    TMP DP  RH WIND       PRES   REMARKS
BURLINGTON     MOSUNNY   66  57  72 S12       29.95F
FAIRFIELD *    CLOUDY    63  57  82 S14G22    29.92F
FORT MADISON * SUNNY     63  61  94 SW9       29.96F
KEOKUK *       MOSUNNY   63  59  88 S6        29.95F
OSKALOOSA *    CLOUDY    64  59  82 SW8       29.92S
CENTERVILLE *  PTSUNNY   66  63  88 S14       29.93F
OTTUMWA        CLOUDY    65  59  81 S8        29.91S
WASHINGTON *   MOSUNNY   66  63  88 S18       29.91F
$$

ABBREVIATIONS USED IN REMARKS
   TC - TEMPERATURES IN CELSIUS
  WCI - WIND CHILL INDEX
   HX - HEAT INDEX
  VSB - VISIBILITY
$$




USA.gov is the U.S. government's official web portal to all federal, state and local government web resources and services.